Overview Statistics Trail Chart Weather Telemetry Raw packets
 

This is the latest recevied weather packets stored in our database for station/object KB4JHU-15. If no packets are shown the sender has not sent any weather packets the latest 10 day(s).

<< 10 11 12 13 14 15 16 >>
Time Temp. Humidity Pressure Rain* Wind** Luminosity Snow
1788088985 21.11° C 93% - 0 mm - - -
1788087184 21.67° C 92% - 0 mm - - -
1788085383 21.67° C 92% - 0 mm - - -
1788083582 21.67° C 92% - 0 mm - - -
1788081781 22.22° C 91% - 0 mm - - -
1788079980 22.22° C 90% - 0 mm - - -
1788078179 22.78° C 89% - 0 mm - - -
1788076378 22.78° C 88% - 0 mm - - -
1788074577 23.33° C 87% - 0 mm - - -
1788072776 23.33° C 87% - 0 mm - - -
1788070975 23.89° C 85% - 0 mm - - -
1788069174 23.89° C 84% - 0 mm - - -
1788067373 24.44° C 83% - 0 mm - - -
1788065572 24.44° C 82% - 0 mm - - -
1788063771 24.44° C 83% - 0 mm - - -
1788061970 25° C 82% - 0 mm - - -
1788060169 24.44° C 82% - 0 mm - - -
1788058368 25° C 80% - 0 mm - - -
1788056567 25.56° C 79% - 0 mm - - -
1788054766 26.11° C 76% - 0 mm - - -
1788052965 27.22° C 72% - 0 mm - - -
1788051164 29.44° C 62% - 0 mm - - -
1788049363 30° C 61% - 0 mm - - -
1788047562 30.56° C 57% - 0 mm - - -
1788045761 31.11° C 54% - 0 mm - - -

* Rain latest hour (hover to see other rain measurements)
** Current wind speed in m/s (hover to see current wind gust speed)